Orbital Elements
Epoch 2024 Mar. 31.0 TT = JDT 2460400.5
T 2024 Oct. 23.57808 TT Rudenko
q 2.8209019 (2000.0) P Q
n 0.13327973 Peri. 357.41914 -0.99862348 -0.05242949
a 3.7957126 Node 179.56674 +0.05099053 -0.97716496
e 0.2568189 Incl. 11.53556 +0.01229242 -0.20591209
P 7.40
>From 305 observations 2002 Jan. 16-2024 Feb. 14, mean residual 0".8.
|